Regional Weather Roundup
Issued by NWS

Home | Current Version | Previous Version | Graphics & Text | Print | Product List | Glossary On
Versions: 1 2 3 4 5 6 7 8 9 10 11 12 13 14 15 16 17 18 19 20 21 22 23 24 25 26 27 28 29 30 31 32 33 34 35 36 37 38 39 40 41 42 43 44 45 46 47 48 49 50
917
ASUS43 KIND 160709
RWRIN

WEATHER ROUNDUP FOR INDIANA
NATIONAL WEATHER SERVICE INDIANAPOLIS IN
200 AM EST TUE JAN 16 2018

NOTE: "FAIR" INDICATES FEW OR NO CLOUDS BELOW 12,000 FEET WITH NO
SIGNIFICANT WEATHER AND/OR OBSTRUCTIONS TO VISIBILITY.

* - STATION DOES NOT REPORT WEATHER SUCH AS PRECIPITATION OR FOG.

+ - STATION NOT QUALITY CONTROLLED BY THE NATIONAL WEATHER SERVICE.
    USE DATA WITH CAUTION...ESPECIALLY DEWPOINT AND RELATIVE
    HUMIDITY OBSERVATIONS.

INZ001>003-010>013-019-020-160800-
NORTHWEST INDIANA

CITY           SKY/WX    TMP DP  RH WIND       PRES   REMARKS
GARY /AIRPORT/ LGT SNOW   9   3  77 SW8       30.37R WCI  -4
KNOX *+        CLOUDY     3   0  85 SW13      30.37S WCI -14
LA PORTE +     MOCLDY     4   0  83 SW10      30.35S FOG     WCI -12
MICHIGAN CITY+ FLURRIES   9   1  72 SW10      30.35S WCI  -6
MONTICELLO +   FAIR       1  -5  74 W10       30.42R WCI -14
RENSSELAER +   CLOUDY     3  -6  66 SW16G23   30.41S WCI -16
VALPARAISO     CLOUDY     5   0  79 SW13      30.35S HAZE    WCI -12

$$

LMZ046-743>745-160800-
SOUTHERN LAKE MICHIGAN

STATION/POSITION TIME  TEMP    WIND        PRES    WAVE
                       AIR SEA DIR/SP/G            HT
                 (UTC) (F)     (DEG/KT/KT) (MB)    (FT)
BURNS HARBOR     0640    8     210/ 14/ 19 1028.1R
MICHIGAN CITY    0640          180/ 10/ 12   N/A

$$

INZ004-005-014>016-021>024-160800-
NORTH CENTRAL INDIANA

CITY           SKY/WX    TMP DP  RH WIND       PRES   REMARKS
GOSHEN         FAIR       2  -3  80 SW9       30.35R WCI -13
LOGANSPORT +   CLOUDY     3  -2  78 W14       30.41S WCI -15
PERU/GRISSOM   CLOUDY     3   0  85 W15       30.39R WCI -15
ROCHESTER +    FAIR       5   1  85 SW9       30.38R WCI  -9
SOUTH BEND     CLOUDY     2  -2  83 SW10      30.35R WCI -14
WARSAW +       FAIR       3   0  85 SW8       30.36R WCI -10

$$

INZ006>009-017-018-025>027-160800-
NORTHEAST INDIANA

CITY           SKY/WX    TMP DP  RH WIND       PRES   REMARKS
AUBURN +       CLOUDY     7   1  78 W7        30.35S WCI  -5
FORT WAYNE     MOCLDY     6   1  80 W13       30.36S WCI -10
HUNTINGTON +   CLOUDY     6   1  78 W12       30.37S WCI -10
KENDALLVILLE + CLOUDY     5   0  81 W15G21    30.32S WCI -13

$$

INZ028-029-035-036-043>045-051>053-160800-
WEST CENTRAL INDIANA

CITY           SKY/WX    TMP DP  RH WIND       PRES   REMARKS
CRAWFORDSVL +  FAIR       0  -3  85 MISG        N/A
GREENCASTLE +  FAIR       3  -4  72 W5        30.45F WCI  -6
LAFAYETTE      CLOUDY     1  -4  79 W10       30.45R WCI -15
TERRE HAUTE    FAIR       2  -7  66 W8        30.50S WCI -12

$$

INZ030>032-037>040-046>048-054>057-064-065-160800-
CENTRAL INDIANA

CITY           SKY/WX    TMP DP  RH WIND       PRES   REMARKS
FISHERS *+       N/A      1   0  92 W3        30.44R
FRANKFORT +    FAIR       4  -1  76 W16       30.43S WCI -14
GREENWOOD *+   FAIR       6  -2  71 W9G16     30.44S WCI  -8
INDIANAPOLIS   FAIR       1  -4  79 W12       30.44R WCI -16
-EAGLE CREEK   FAIR       3  -3  76 VRB6      30.43R WCI  -8
MARION +       CLOUDY     5   1  83 W10       30.40R FOG     WCI -10
MT COMFORT *+  FAIR       1  -2  85 W9        30.43R WCI -14
SHELBYVILLE    FAIR       7  -3  64 W12       30.44R WCI  -8
ZIONSVILLE +   FAIR       0  -4  84 W7        30.42R WCI -13

$$

INZ033-034-041-042-049-050-058-059-160800-
EAST CENTRAL INDIANA

CITY           SKY/WX    TMP DP  RH WIND       PRES   REMARKS
MUNCIE         CLOUDY     7   0  73 W12       30.39R WCI  -8
RICHMOND +     FAIR       5   1  85 W17       30.38S WCI -14

$$

INZ060-061-067>069-081>083-085>088-160800-
SOUTHWEST INDIANA

CITY           SKY/WX    TMP DP  RH WIND       PRES   REMARKS
EVANSVILLE     MOCLDY    10   0  63 NW8G17    30.56R WCI  -2
HUNTINGBURG +  CLOUDY     9   3  78 NW14      30.54R WCI  -8
WASHINGTON +   FAIR       6  -4  63 NW13      30.53R WCI -10

$$

INZ062-063-066-070>080-084-089>092-160800-
SOUTH CENTRAL AND SOUTHEAST INDIANA

CITY           SKY/WX    TMP DP  RH WIND       PRES   REMARKS
BATESVILLE *+    N/A    N/A N/A N/A MISG        N/A
BEDFORD +      MOCLDY     9   1  72 W6        30.46R WCI  -1
BLOOMINGTON    FAIR       4  -4  69 W12       30.46R WCI -12
MADISON *+     CLOUDY    14   7  73 W8        30.45S WCI   3
NORTH VERNON + LGT SNOW  10   5  79 NW6       30.45R WCI   1
SEYMOUR +      CLOUDY    14   5  67 W8        30.47R WCI   3

$$





USA.gov is the U.S. government's official web portal to all federal, state and local government web resources and services.